Location: Hertford
(51.7958°N, 0.0812°W)
Time: 08:06:31
(UTC+01:00)

ISS - Visible Passes

Search period start: 30 April 2025 00:00
Search period end: 10 May 2025 00:00
Orbit: 417 x 420 km, 51.6° (Epoch: 29 April)

Date Brightness Start Highest point End Pass type
(mag) Time Alt. Az. Time Alt. Az. Time Alt. Az.
30 Apr -1.1 02:00:31 12° E 02:00:31 12° E 02:00:58 10° E visible
30 Apr -3.8 03:33:27 35° WSW 03:34:41 68° SSE 03:38:02 10° E visible
01 May -3.5 02:47:11 52° SE 02:47:11 52° SE 02:50:11 10° E visible
01 May -3.8 04:20:14 10° W 04:23:37 90° SW 04:26:59 10° E visible
02 May -1.8 02:00:51 22° E 02:00:51 22° E 02:02:17 10° E visible
02 May -3.8 03:33:46 23° W 03:35:44 87° S 03:39:06 10° E visible
03 May -3.9 02:47:25 64° WSW 02:47:51 80° S 02:51:12 10° E visible
03 May -3.8 04:21:16 10° W 04:24:38 80° S 04:27:59 10° ESE visible
04 May -2.8 02:01:03 38° E 02:01:03 38° E 02:03:18 10° E visible
04 May -3.8 03:33:58 15° W 03:36:42 87° S 03:40:05 10° E visible
05 May -1.3 01:14:39 15° E 01:14:39 15° E 01:15:20 10° E visible
05 May -3.9 02:47:34 37° W 02:48:45 90° W 02:52:08 10° E visible
05 May -3.6 04:22:10 10° W 04:25:29 55° SSW 04:28:46 10° ESE visible
06 May -3.7 02:01:11 67° E 02:01:11 67° E 02:04:09 10° E visible
06 May -3.9 03:34:11 10° W 03:37:32 69° SSW 03:40:53 10° ESE visible
07 May -1.9 01:14:49 22° E 01:14:49 22° E 01:16:09 10° E visible
07 May -3.9 02:47:43 25° W 02:49:33 81° S 02:52:55 10° ESE visible
07 May -3.0 04:23:04 10° W 04:26:06 31° SSW 04:29:07 10° SE visible
08 May -3.9 02:01:28 86° WSW 02:01:32 88° S 02:04:54 10° E visible
08 May -3.4 03:34:57 10° W 03:38:11 42° SSW 03:41:23 10° SE visible
08 May -1.4 21:58:29 10° S 21:58:30 10° S 21:58:30 10° S visible
09 May -1.9 01:15:35 21° E 01:15:35 21° E 01:16:51 10° E visible
09 May -3.8 02:48:32 26° W 02:50:11 56° SSW 02:53:30 10° ESE visible
09 May -2.1 04:24:15 10° W 04:26:28 17° SW 04:28:41 10° S visible
09 May -3.4 22:45:36 10° SW 22:48:46 40° SSE 22:50:02 27° ESE visible
